Location: Bli��� Lhota
(48.7570°N, 14.0120°E)
Time: 07:45:36
(UTC+00:00)

Cosmos 2369 Rocket - Pass Details

Date: 18 September 2020
Orbit: 827 x 854 km, 71.0° (Epoch: 24 October)

Event Time Altitude Azimuth Distance (km) Brightness Sun altitude
Exits shadow 22:59:29 20° 33° (NNE) 1,870 4.4 -39.8°
Drops below altitude 10° 23:01:06 10° 31° (NNE) 2,469 5.2 -39.8°
Sets 23:03:34 0° 30° (NNE) 3,412 6.1 -39.8°
